Regional Weather Roundup
Issued by NWS

Home | Current Version | Previous Version | Graphics & Text | Print | Product List | Glossary On
Versions: 1 2 3 4 5 6 7 8 9 10 11 12 13 14 15 16 17 18 19 20 21 22 23 24 25 26 27
000
ASUS45 KPSR 291710
RWRAZ

ARIZONA HOURLY REGIONAL WEATHER ROUNDUP
NATIONAL WEATHER SERVICE PHOENIX AZ
1000 AM MST FRI JUL 29 2016

NOTE: FAIR INDICATES FEW OR NO CLOUDS BELOW 12,000 FEET WITH NO
SIGNIFICANT WEATHER AND/OR OBSTRUCTIONS TO VISIBILITY.

AZZ001>003-036-291800-
NORTHWEST ARIZONA

CITY           SKY/WX    TMP DP  RH WIND       PRES   REMARKS
BULLHEAD CITY  SUNNY    102  59  24 SW10      29.77F HX 102
KINGMAN        MOSUNNY   98  50  19 W15       30.01S
$$

AZZ004>008-015-016-018-291800-
NORTH CENTRAL ARIZONA

CITY           SKY/WX    TMP DP  RH WIND       PRES   REMARKS
GRAND CANYON   SUNNY     89  41  18 N8        30.28R
WILLIAMS       MOSUNNY   84  43  23 NW9       30.37R
PRESCOTT       SUNNY     92  44  19 NW9       30.15S
FLAGSTAFF      MOSUNNY   80  48  32 S8        30.30S
PAYSON         SUNNY     86  52  30 CALM      30.19S
PAGE           SUNNY     93  41  16 CALM      30.04F
$$

AZZ009>014-017-291800-
NORTHEAST ARIZONA

CITY           SKY/WX    TMP DP  RH WIND       PRES   REMARKS
WINSLOW        SUNNY     91  43  18 CALM      30.12S
WINDOW ROCK    SUNNY     83  47  28 VRB5      30.28S
SHOW LOW       SUNNY     82  45  26 S13G20    30.27S
$$

AZZ023-291800-
GREATER PHOENIX AREA

CITY           SKY/WX    TMP DP  RH WIND       PRES   REMARKS
PHOENIX        MOSUNNY   98  62  30 NW13      29.83F
BUCKEYE        MOSUNNY   95  63  34 SW7       29.86F
GLENDALE       MOSUNNY   97  64  34 S12       29.86S
LUKE AFB       SUNNY     98  64  32 SW15      29.83S
DEER VALLEY    SUNNY     94  63  35 S8        29.86F
SCOTTSDALE     SUNNY     94  62  34 CALM      29.88F
MESA-GATEWAY   MOSUNNY   95  63  34 VRB5      29.87F
CHANDLER       MOSUNNY   97  63  32 N7        29.86S
$$

AZZ027-028-291800-
SOUTHWEST MARICOPA COUNTY AND PINAL COUNTY

CITY           SKY/WX    TMP DP  RH WIND       PRES   REMARKS
CASA GRANDE    SUNNY     99  63  30 SW8       29.89F HX 100
GILA BEND      SUNNY     98  62  29 W8        29.83S
$$

AZZ503-504-507>509-291800-
SOUTHEAST ARIZONA

CITY           SKY/WX    TMP DP  RH WIND       PRES   REMARKS
TUCSON         SUNNY     92  65  40 VRB6      29.98F
DAVIS-MONTHAN  SUNNY     89  66  46 NW5       29.97F
RYAN FIELD     SUNNY     91  64  40 W6        29.97F
NOGALES        SUNNY     83  67  58 CALM      30.06F
SIERRA VISTA   SUNNY     87  58  37 VRB1      30.14R
DOUGLAS        SUNNY     85  66  53 VRB3      30.09S
SAFFORD        MOSUNNY   93  56  28 SW8       29.99S
$$

AZZ020-021-025-026-031-291800-
SOUTHWEST ARIZONA

CITY           SKY/WX    TMP DP  RH WIND       PRES   REMARKS
YUMA           MOSUNNY   97  72  44 SE21      29.78S HX 105
$$

CAZ031-033-041-043-047-048-061-291800-
SOUTHERN CALIFORNIA

CITY           SKY/WX    TMP DP  RH WIND       PRES   REMARKS
DOWNTOWN L.A.  SUNNY     82  63  52 CALM      29.82F
L.A. AIRPORT   SUNNY     75  65  70 W7        29.84F
SAN DIEGO      MOSUNNY   75  67  76 VRB7      29.87R
BURBANK        SUNNY     84  58  40 CALM      29.84F
ONTARIO        MOSUNNY   87  54  32 S3        29.85F
RIVERSIDE      SUNNY     86  55  34 SW5       29.85F
PALM SPRINGS   MOSUNNY   93  70  46 VRB3      29.81F
EL CENTRO NAS  MOSUNNY   94  73  50 N5        29.77R HX 103
IMPERIAL       SUNNY     97  76  50 VRB3      29.75R HX 110
NEEDLES        MOSUNNY  107  58  20 VRB3      29.79F HX 107
$$

NVZ020-UTZ003-291800-
SOUTHERN NEVADA-UTAH

CITY           SKY/WX    TMP DP  RH WIND       PRES   REMARKS
LAS VEGAS      CLOUDY   100  45  15 N5        29.85S
SALT LAKE CITY MOSUNNY   90  41  18 SE5       30.05F
$$

NMZ009-TXZ055-291800-
NEW MEXICO-WEST TEXAS

CITY           SKY/WX    TMP DP  RH WIND       PRES   REMARKS
ALBUQUERQUE    MOSUNNY   87  52  29 SE14G26   30.18F
EL PASO        MOSUNNY   88  57  34 NW3       30.10S
$$


........................KEY........................
SKY/WX - SKY CONDITION/WEATHER
TMP    - TEMPERATURE IN FAHRENHEIT
DP     - DEW POINT IN FAHRENHEIT
RH     - RELATIVE HUMIDITY IN PERCENT
WIND   - DIRECTION AND SPEED IN MILES PER HOUR (MPH)
VRB    - VARIABLE WIND DIRECTION
PRES   - MEAN SEA LEVEL PRESSURE IN INCHES OF MERCURY
         F - FALLING PRESSURE   R - RISING PRESSURE
         S - STEADY PRESSURE
VSB    - VISIBILITY IN MILES
HX     - HEAT INDEX IN FAHRENHEIT
WCI    - WIND CHILL INDEX IN FAHRENHEIT
TC     - TEMPERATURE IN CELSIUS WHICH IS ALSO KNOWN AS
         TEMPERATURE IN CENTIGRADE
AFB    - AIR FORCE BASE
         LUKE AFB IS LUKE AIR FORCE BASE
         DAVIS-MONTHAN IS DAVIS-MONTHAN AIR FORCE BASE
NAS    - NAVAL AIR STATION
         EL CENTRO NAS IS EL CENTRO NAVAL AIR STATION
N/A    - NOT AVAILABLE





USA.gov is the U.S. government's official web portal to all federal, state and local government web resources and services.